Regional Weather Roundup
Issued by NWS

Home | Current Version | Previous Version | Graphics & Text | Print | Product List | Glossary On
Versions: 1 2 3 4 5 6 7 8 9 10 11 12 13 14 15 16 17 18 19 20 21 22 23 24 25 26 27 28 29 30 31 32 33 34 35 36 37 38 39 40 41 42 43 44 45 46 47 48 49 50
000
ASUS43 KLOT 190708
RWRIL

ILLINOIS REGIONAL WEATHER ROUNDUP
NATIONAL WEATHER SERVICE CHICAGO/ROMEOVILLE IL
100 AM CST THU JAN 19 2017

NOTE: "FAIR" INDICATES FEW OR NO CLOUDS BELOW 12,000 FEET WITH NO
SIGNIFICANT WEATHER AND/OR OBSTRUCTIONS TO VISIBILITY.

* THESE STATIONS ARE NOT UNDER NWS QUALITY CONTROL. THEY ALSO MAY NOT
  REPORT WEATHER SUCH AS PRECIPITATION OR FOG.

ILZ001-002-007-009-015-016-024-190800-
NORTHWEST ILLINOIS

CITY           SKY/WX    TMP DP  RH WIND       PRES   REMARKS
MOLINE         CLOUDY    28  27  96 CALM      30.00S FOG
STERLING*      CLEAR     31  30  96 CALM      30.02F FOG
SAVANNA*         N/A     29  29  98 CALM      30.01S FOG
$$

ILZ003-004-008-010-011-017-018-190800-
NORTH CENTRAL ILLINOIS

CITY           SKY/WX    TMP DP  RH WIND       PRES   REMARKS
ROCKFORD       CLEAR     31  28  89 S5        30.04S FOG     WCI  26
FREEPORT*      CLEAR     32  31  96 S7        30.02S FOG     WCI  26
ROCHELLE*      FOG       31  31  99 S6        30.04S VSB 3/4 WCI  25
DE KALB*       FOG       31  31  99 S8        30.03F VSB 1/2 WCI  24
$$

ILZ005-006-012>014-019>023-190800-
NORTHEAST ILLINOIS

CITY           SKY/WX    TMP DP  RH WIND       PRES   REMARKS
CHICAGO-OHARE  CLOUDY    33  32  96 SW7       30.04R FOG     WCI  27
CHICAGO-MIDWAY CLOUDY    33  31  92 SW7       30.05S FOG     WCI  27
AURORA         CLOUDY    32  29  88 S5        30.04F FOG     WCI  27
LANSING*       CLOUDY    35  35  99 SW9       30.07R WCI  28
JOLIET*          N/A     33  33 100 CALM      30.06F FOG
WAUKEGAN       CLOUDY    33  32  96 VRB5      30.02S FOG     WCI  29
DUPAGE AIRPORT CLOUDY    32  29  88 S8        30.03S FOG     WCI  25
KANKAKEE*      MOCLDY    34  32  94 CALM      30.08S
WHEELING       CLOUDY    27  27 100 S3        30.05S FOG
MORRIS*        CLOUDY    31  30  96 CALM      30.04F FOG
ROMEOVILLE*    CLOUDY    33  33 100 S8        30.05F FOG     WCI  26
NORTHERLY ISL    N/A     35  32  88 SW6         N/A  WCI  30
$$

LMZ740>746-190800-
SOUTHERN LAKE MICHIGAN

STATION/POSITION SKY/WX   TEMP    WIND        PRES    VSBY  WAVE
                          AIR SEA DIR/SP/G                  HT/PER
                          (F)     (DEG/KT/KT) (MB)    (MI)  (FT/S)
HARRISON CRIB              36     200/ 13/ 15   N/A
BURNHAM HARBOR             35     180/  7/  9   N/A
CALUMET HARBOR             35     190/  6/ 11 1017.1F
BURNS HARBOR               37     200/ 11/ 16 1018.6F
$$

ILZ025>027-034>036-040-047-049-050-058-095>099-190800-
WEST-CENTRAL ILLINOIS

CITY           SKY/WX    TMP DP  RH WIND       PRES   REMARKS
QUINCY         PTCLDY    36  33  89 E6        29.99F WCI  31
GALESBURG*     CLOUDY    33  33 100 SE5       30.01S FOG     WCI  29
MACOMB*        CLOUDY    33  33 100 CALM      30.04S FOG
JACKSONVILLE*  CLOUDY    37  35  92 S3        30.03R
PITTSFIELD*    CLOUDY    37  35  92 E3        30.01F
$$

ILZ028>032-037-038-041>044-048-051>054-059>061-190800-
CENTRAL ILLINOIS

CITY           SKY/WX    TMP DP  RH WIND       PRES   REMARKS
PONTIAC        CLOUDY    33  33 100 S6        30.06S FOG     WCI  28
BLOOMINGTON    CLOUDY    31  31 100 S5        30.04F FOG     WCI  26
DECATUR        CLOUDY    34  34 100 SE3       30.05F FOG
PEORIA         CLOUDY    34  33  96 S6        30.03F FOG     WCI  29
LACON*         CLOUDY    31  31 100 SE6       30.03F FOG     WCI  26
LINCOLN*       CLOUDY    34  34 100 SE3       30.05R FOG
SPRINGFIELD    CLOUDY    38  35  89 SE6       30.03F WCI  33
TAYLORVILLE    CLOUDY    37  36  96 CALM      30.05S FOG
$$

ILZ033-039-045-046-055>057-062-063-190800-
EAST-CENTRAL ILLINOIS

CITY           SKY/WX    TMP DP  RH WIND       PRES   REMARKS
CHAMPAIGN      CLOUDY    33  31  92 SE3       30.07F FOG
RANTOUL*       CLOUDY    35  34  98 CALM      30.07F FOG
MATTOON        CLOUDY    36  34  92 SE7       30.05F WCI  30
PARIS*         CLOUDY    35  35  99 SE5       30.09S FOG     WCI  31
$$

ILZ079-100>102-190800-
SOUTHWEST ILLINOIS

CITY           SKY/WX    TMP DP  RH WIND       PRES   REMARKS
ALTON          LGT RAIN  40  37  92 SE3       30.05S
BELLEVILLE     LGT RAIN  41  41  99 SE3       30.04F
CAHOKIA*       CLOUDY    43  37  79 SE5       30.04F
SPARTA*        CLOUDY    41  38  90 CALM      30.06F
$$

ILZ064>066-069>071-074>076-080>082-084>086-088>090-092>094-190800-
SOUTH-CENTRAL ILLINOIS

CITY           SKY/WX    TMP DP  RH WIND       PRES   REMARKS
CARBONDALE     CLOUDY    42  40  92 CALM      30.06F
CAIRO*         CLOUDY    44  42  95 NE5       30.04S
EFFINGHAM*     CLOUDY    38  38  99 E5        30.07F WCI  35
MARION         CLOUDY    43  43 100 E3        30.06F
MT. VERNON     CLOUDY    40  37  89 S5        30.07S
CENTRALIA*     CLOUDY    41  39  93 S5        30.05R
SALEM*         CLOUDY    41  37  88 E5        30.05S
METROPOLIS*    RAIN      45  41  88 CALM      30.05F
$$

ILZ067-068-072-073-078-083-087-091-190800-
SOUTHEAST ILLINOIS

CITY           SKY/WX    TMP DP  RH WIND       PRES   REMARKS
LAWRENCEVILLE  MOCLDY    38  37  97 E3        30.09F
FLORA*         CLOUDY    39  37  92 SE6       30.07S WCI  35
FAIRFIELD*     CLOUDY    39  37  94 CALM      30.06S
HARRISBURG*    MOCLDY    41  39  93 CALM      30.07F
ROBINSON*      MOCLDY    37  35  94 SE6       30.10F FOG     WCI  32
CARMI*         MOCLDY    39  38  97 E7        30.05F FOG     WCI  34
$$

ABBREVIATIONS USED IN REMARKS
   TC - TEMPERATURE IN CELSIUS
  WCI - WIND CHILL INDEX
   HX - HEAT INDEX
  VSB - VISIBILITY
$$





USA.gov is the U.S. government's official web portal to all federal, state and local government web resources and services.